Lid_Strength_Index
8 12 15 13 11 11 12 13 14 12 11 11 12 13 12 9 7 8 8 7 6 6 6 6 6 4 2 2 2 2 1 1 1 1 1 1 2 2 2 2 1 1 1 1
12 14 11 10 10 11 12 16 16 11 9 10 11 12 11 10 8 8 8 7 7 8 8 8 7 7 7 3 2 2 1 1 1 1 1 1 1 1 1 1 1 0 1 1
13 12 9 11 11 12 12 14 14 13 11 10 13 14 12 9 8 8 7 6 7 8 9 10 10 10 8 8 8 4 2 1 1 1 2 2 1 1 1 1 1 0 0 0
12 10 11 11 12 11 15 10 11 12 14 17 11 19 14 11 11 9 8 8 10 10 10 10 11 11 11 10 8 8 8 1 1 1 1 2 2 3 2 1 1 0 0 0
13 12 12 13 12 10 13 9 11 11 14 14 15 17 15 11 13 11 10 11 12 12 12 12 12 11 11 10 9 9 9 8 2 1 1 2 2 2 1 1 1 1 0 0
11 9 10 11 10 10 10 11 11 12 14 19 15 17 17 14 13 11 12 13 13 13 13 12 12 11 12 11 10 9 10 11 8 4 1 1 2 2 2 2 2 2 1 0
13 12 9 8 11 9 11 14 19 20 20 21 15 17 17 13 10 11 13 14 13 13 13 13 13 12 12 12 12 10 10 11 11 9 6 5 4 3 3 4 3 2 3 4
18 18 12 9 12 13 13 14 19 23 22 20 15 19 17 14 13 14 14 15 14 14 14 14 14 13 13 12 12 12 12 12 12 13 11 10 9 8 8 8 7 7 7 7
17 16 10 10 10 10 14 16 12 17 18 20 18 16 14 14 15 15 15 15 15 15 15 15 14 14 13 13 12 12 12 13 13 13 12 12 12 11 11 11 10 10 9 8
13 17 12 12 10 10 12 11 17 16 22 23 19 18 18 16 16 15 16 16 15 15 15 15 15 14 14 14 13 12 13 13 13 13 13 13 13 13 12 12 12 12 11 10
11 14 14 12 13 14 13 15 14 15 16 20 21 19 14 15 14 14 15 15 15 15 15 15 15 14 14 13 13 13 13 13 13 13 13 13 13 13 13 13 13 13 13 12
11 13 16 15 11 10 12 14 14 17 19 18 19 20 14 15 14 13 13 14 14 14 14 14 14 14 14 14 14 13 13 14 14 14 14 14 14 14 14 14 14 14 14 13
11 16 18 16 14 12 14 13 14 15 15 19 20 20 14 16 16 16 14 14 13 14 14 14 14 14 14 14 14 14 13 14 14 14 14 14 15 15 15 15 15 15 15 15
10 14 17 18 16 15 17 15 14 16 19 18 18 18 16 16 17 17 16 15 15 14 14 14 14 14 14 15 15 15 15 14 14 14 15 15 15 15 15 15 15 15 15 15
12 17 15 15 15 15 16 17 15 18 20 19 17 17 16 16 17 16 16 15 15 15 15 15 15 15 15 15 15 15 15 15 15 16 16 16 16 16 16 16 16 16 16 16
13 15 17 18 16 15 17 16 16 16 17 17 16 17 14 14 15 16 16 16 16 15 15 16 16 16 16 16 16 16 16 16 16 16 17 17 17 17 17 17 17 17 17 16
17 19 20 20 19 19 19 17 17 16 15 17 19 16 14 14 14 15 14 14 15 15 15 16 16 17 17 17 17 17 17 17 17 18 17 18 18 18 18 18 17 18 17 17
20 23 23 22 21 24 15 14 16 15 15 14 14 15 14 15 15 14 14 14 14 14 15 16 16 17 17 17 17 17 18 18 17 17 17 17 18 18 18 18 18 18 17 18
15 21 24 23 31 20 18 16 17 17 17 15 15 15 14 14 14 15 14 14 15 15 15 15 16 17 17 17 17 17 18 18 18 18 17 17 17 17 17 18 18 18 18 18
15 17 20 29 28 27 19 17 16 15 19 15 14 14 14 13 16 16 15 14 15 15 15 16 16 16 17 17 17 17 17 18 18 18 18 17 17 18 18 18 18 18 18 18
25 26 27 30 30 24 18 16 15 20 18 15 14 13 13 15 15 14 14 14 14 14 15 15 15 16 16 16 16 16 17 17 17 17 17 17 17 17 17 17 17 17 17 17
23 26 29 33 30 26 17 15 18 15 15 14 14 14 14 14 14 14 14 14 14 14 14 14 15 15 15 15 15 16 16 16 17 17 18 18 18 16 17 17 18 18 18 18
21 21 23 21 21 17 16 15 14 13 13 14 13 14 14 14 17 16 17 17 17 17 16 17 17 17 18 18 17 17 17 18 19 19 20 20 19 17 17 18 18 19 19 20
20 20 21 20 19 18 16 15 14 14 14 14 13 14 14 16 17 17 18 17 18 20 19 22 21 19 19 20 19 19 20 20 21 21 21 21 20 20 20 18 18 19 20 20
19 19 21 20 19 20 19 18 16 16 16 16 17 17 16 15 16 17 17 19 20 21 21 23 21 21 20 23 22 23 21 20 20 20 21 21 20 21 20 19 19 18 19 18
18 17 18 18 15 16 16 19 20 18 18 19 17 17 18 17 16 17 18 20 20 20 21 21 21 21 20 22 20 21 22 20 20 20 20 20 20 21 20 19 19 14 13 13